Location: Wiesbaden
(50.0830°N, 8.2500°E)
Time: 22:26:29
(UTC+02:00)

ISS - Pass Details

Date: 12 September 2019
Orbit: 411 x 421 km, 51.6° (Epoch: 19 September)

Event Time Altitude Azimuth Distance (km) Brightness Sun altitude
Exits shadow 04:43:37 70° 106° (ESE) 446 -3.6 -20.7°
Drops below altitude 10° 04:46:37 10° 107° (ESE) 1,491 -0.5 -20.3°
Sets 04:48:43 0° 107° (ESE) 2,354 0.6 -20.0°
